Location: Czekanka
(50.4925°N, 19.2643°E)
Time: 10:38:46
(UTC+00:00)

SL-16 R/B - Visible Passes

Search period start: 09 November 2025 00:00
Search period end: 19 November 2025 00:00
Orbit: 839 x 848 km, 71.0° (Epoch: 08 November)

Date Brightness Start Highest point End Pass type
(mag) Time Alt. Az. Time Alt. Az. Time Alt. Az.
09 Nov 4.1 04:19:55 10° SSE 04:24:57 34° ESE 04:30:00 10° NE visible
10 Nov 4.1 04:05:32 10° SSE 04:10:30 32° ESE 04:15:30 10° NE visible
11 Nov 4.1 03:51:09 10° SSE 03:56:04 31° ESE 04:01:01 10° NE visible
12 Nov 4.1 03:36:46 10° SSE 03:41:38 30° ESE 03:46:32 10° NE visible
13 Nov 4.1 03:22:23 10° SSE 03:27:12 29° ESE 03:32:02 10° NE visible
13 Nov 2.3 05:05:24 10° SW 05:11:00 57° NW 05:16:37 10° NNE visible
14 Nov 4.2 03:08:02 10° SSE 03:12:46 28° ESE 03:17:32 10° NE visible
14 Nov 2.3 04:50:54 10° SW 04:56:32 59° NW 05:02:10 10° NNE visible
15 Nov 4.2 02:53:39 10° SSE 02:58:20 27° ESE 03:03:03 10° NE visible
15 Nov 2.2 04:36:26 10° SW 04:42:03 61° WNW 04:47:43 10° NNE visible
16 Nov 4.2 02:39:18 10° SSE 02:43:55 26° ESE 02:48:32 10° NE visible
16 Nov 2.2 04:21:57 10° SW 04:27:36 63° NW 04:33:16 10° NNE visible
17 Nov 4.2 02:24:56 10° SSE 02:29:29 25° ESE 02:34:02 10° NE visible
17 Nov 2.2 04:07:28 10° SW 04:13:07 65° WNW 04:18:48 10° NNE visible
18 Nov 4.2 02:12:39 18° SE 02:15:02 24° ESE 02:19:31 10° NE visible
18 Nov 2.1 03:54:37 20° SW 03:58:40 67° WNW 04:04:22 10° NNE visible
